Location: Unspecified
(56.5167°N, 0.0000°E)
Time: 04:41:43
(UTC+02:00)

CZ-3 Stage 3 - Visible Passes

Search period start: 24 April 2018 00:00
Search period end: 04 May 2018 00:00
Orbit: 434 x 34762 km, 31.0° (Epoch: 23 April)

Date Brightness Start Highest point End Pass type
(mag) Time Alt. Az. Time Alt. Az. Time Alt. Az.
25 Apr 9.1 05:25:07 10° SSE 08:39:26 27° SSE 09:11:43 10° ESE visible
28 Apr 9.1 05:06:39 10° SSE 08:29:34 28° SSE 09:02:26 10° ESE visible
30 Apr 7.1 08:17:10 10° SSW 12:18:46 33° SSW 12:31:46 10° SE visible
01 May 9.1 04:48:21 10° SSE 08:19:39 29° SSE 08:53:04 10° ESE visible
03 May 7.2 07:45:38 10° SSW 12:09:01 33° SSW 12:22:13 10° SE visible
